User: anonymous
Location: Lake Runnemede Observatory
(43.4843°N, 72.3851°W)
Time: 22:12:31
(UTC-04:00)
Language:

SPOT 5 - Orbit

View from above orbital plane
View from above orbital plane
View from above satellite
View from above satellite

Ground track
Ground track

The orbit data is extracted from the following two-line orbital elements,

1 27421U 02021A   14293.48590623  .00000110  00000-0  71223-4 0   472
2 27421 098.5471 352.5499 0001396 101.2339 348.7928 14.20114481646101
Epoch (UTC): 20 October 2014 11:39:42
Eccentricity: 0.0001396
inclination: 98.5471°
perigee height: 824 km
apogee height: 826 km
right ascension of ascending node: 352.5499°
argument of perigee: 101.2339°
revolutions per day: 14.20114481
mean anomaly at epoch: 348.7928°
orbit number at epoch: 64610

The dashed part of the orbit path shows where the satellite is in the earth's shadow,  

DLR